This demonstration page uses our WeatherBlox Daily Observations layout. Learn more.

Left ArrowRight Arrow

39.08367, -84.50855

Hourly Observations for December 3, 2019

Temp ( °F °C ) Dew Point ( °F °C ) Humidity (%) Winds ( mph kmh ) Pressure ( in mb ) Visibility ( mi km ) Precip ( " mm )
12:53 am 00:53 Cloudy with Light Snow 34 1.1 31 -0.6 89 89 W 10 17 30.03 1017 6 10 0.00 0.00
1:53 am 01:53 Cloudy 35 1.7 31 -0.6 85 85 W 8 13 30.04 1017 10 16 0.00 0.00
2:53 am 02:53 Cloudy 34 1.1 30 -1.1 85 85 W 8 13 30.03 1017 10 16 N/A
3:31 am 03:31 Cloudy 34 1.1 30 -1.1 85 85 W 8 13 30.05 1017 10 16 N/A
3:53 am 03:53 Cloudy 34 1.1 30 -1.1 85 85 W 7 11 30.02 1017 10 16 N/A
4:53 am 04:53 Cloudy 34 1.1 30 -1.1 85 85 W 6 9 30.02 1017 10 16 N/A
5:53 am 05:53 Cloudy 34 1.1 30 -1.1 85 85 SW 5 7 30.00 1016 10 16 N/A
6:53 am 06:53 Cloudy 34 1.1 29 -1.7 82 82 SW 6 9 30.00 1016 10 16 N/A
7:53 am 07:53 Cloudy 34 1.1 28 -2.2 79 79 WSW 8 13 30.00 1016 10 16 N/A
8:53 am 08:53 Cloudy 33 0.6 28 -2.2 82 82 SW 9 15 29.99 1016 10 16 N/A
9:53 am 09:53 Cloudy 33 0.6 28 -2.2 82 82 WSW 9 15 29.99 1016 10 16 N/A
10:53 am 10:53 Cloudy 33 0.6 28 -2.2 82 82 SW 9 15 29.98 1015 10 16 N/A
11:53 am 11:53 Cloudy 33 0.6 27 -2.8 78 78 SW 10 17 29.95 1014 10 16 N/A
12:53 pm 12:53 Cloudy 34 1.1 28 -2.2 79 79 SW 9 15 29.90 1013 10 16 N/A
1:53 pm 13:53 Cloudy 36 2.2 28 -2.2 73 73 SSW 13 20 29.88 1012 10 16 N/A
2:49 pm 14:49 Mostly Sunny 37 3 28 -2 70 70 SW 9 15 29.87 1012 10 16 N/A
2:53 pm 14:53 Partly Cloudy 37 2.8 28 -2.2 70 70 SW 8 13 29.85 1011 10 16 N/A
3:53 pm 15:53 Partly Cloudy 38 3.3 29 -1.7 70 70 SSW 12 19 29.83 1010 10 16 N/A
4:53 pm 16:53 Sunny 37 2.8 28 -2.2 70 70 SSW 9 15 29.82 1010 10 16 N/A
5:53 pm 17:53 Mostly Clear 37 2.8 28 -2.2 70 70 S 8 13 29.81 1009 10 16 N/A
6:53 pm 18:53 Cloudy 37 2.8 29 -1.7 73 73 S 8 13 29.80 1009 10 16 N/A
7:53 pm 19:53 Partly Cloudy 34 1.1 28 -2.2 79 79 SSW 9 15 29.79 1009 10 16 N/A
8:53 pm 20:53 Clear 32 undefined 27 -2.8 82 82 S 5 7 29.78 1009 10 16 N/A
9:53 pm 21:53 Clear 31 -0.6 26 -3.3 82 82 SSW 6 9 29.77 1008 10 16 N/A
10:53 pm 22:53 Clear 31 -0.6 27 -2.8 85 85 S 5 7 29.75 1008 10 16 N/A
11:53 pm 23:53 Clear 29 -1.7 26 -3.3 89 89 N N/A 29.75 1008 10 16 N/A

Powered by AerisWeather